Regional Weather Roundup
Issued by NWS

Home | Current Version | Previous Version | Text Only | Print | Product List | Glossary Off
Versions: 1 2 3 4 5 6 7 8 9 10 11 12 13 14 15 16 17 18 19 20 21 22 23 24 25 26 27 28 29 30 31 32 33 34 35 36 37 38 39 40 41 42 43 44 45 46 47 48 49 50

317
ASUS43 KMPX 061801
RWRMN
WEATHER ROUNDUP FOR MINNESOTA
NATIONAL WEATHER SERVICE TWIN CITIES/CHANHASSEN MN
100 PM CDT FRI MAY 06 2016


NOTE: "FAIR" INDICATES FEW OR NO CLOUDS BELOW 12,000 FEET WITH NO
SIGNIFICANT WEATHER AND/OR OBSTRUCTIONS TO VISIBILITY. N/A MEANS
CURRENT SKY AND/OR WEATHER CONDITIONS ARE NOT AVAILABLE.

MNZ060>063-068>070-061900-
   Twin Cities Metro

CITY           SKY/WX    TMP DP  RH WIND       PRES   REMARKS
TWIN CITIES    MOSUNNY   85  48  27 SW15      29.79F
6HR MIN TEMP:  61; 6HR MAX TEMP:  86;

ST PAUL        SUNNY     83  53  35 SW12      29.79F
CRYSTAL        SUNNY     86  50  28 SW14      29.77F
BLAINE         SUNNY     84  48  28 SW16G22   29.78F
EDEN PRAIRIE   SUNNY     87  50  27 SW13G20   29.78F
6HR MIN TEMP:  58; 6HR MAX TEMP:  87;

SOUTH ST PAUL  SUNNY     86  49  27 SW10G18   29.79F
LAKE ELMO      FAIR      82  54  36 SW14      29.81F
$$
MNZ001>005-007-008-013>017-022>024-027-028-061900-
   Northwest Minnesota

CITY           SKY/WX    TMP DP  RH WIND       PRES   REMARKS
BEMIDJI        SUNNY     82  50  33 W15       29.73S
HALLOCK        CLOUDY    66  37  34 N26G38    29.85R
ROSEAU         CLOUDY    68  43  40 NW23      29.80R
WARROAD        CLOUDY    64  48  55 NW16G29   29.78R
THIEF RVR FALL PTSUNNY   70  43  37 N22G28    29.82R
CROOKSTON      SUNNY     72  43  35 N26G36    29.81R
FOSSTON        CLOUDY    75  45  33 NW10      29.77S
DETROIT LAKES  SUNNY     81  48  32 NW9       29.77S
MOORHEAD       SUNNY     84  45  24 N29       29.76R
PARK RAPIDS    MOSUNNY   88  49  25 SW9       29.72F
MAHNOMEN       FAIR      80  48  32 N12       29.75S
$$
MNZ006-009>011-018-025>026-061900-
   North Central Minnesota

CITY           SKY/WX    TMP DP  RH WIND       PRES   REMARKS
BAUDETTE       PTSUNNY   71  45  39 NW20G30   29.74R
FLAG ISLAND    CLOUDY    61  45  55 NW22      29.74R
INTL FALLS     SUNNY     85  46  25 NW22G29   29.65S
6HR MIN TEMP:  67; 6HR MAX TEMP:  86;

WASKISH        SUNNY     75  52  43 SW10      29.71F
BIG FORK       MOSUNNY   86  46  25 SW12G17   29.67F
LONGVILLE      SUNNY     86  46  25 SW9       29.71F
GRAND RAPIDS   MOSUNNY   88  46  23 SW15G22   29.71F
CRANE LAKE     MOSUNNY   86  39  19 SW9G20    29.64F
ORR            MOSUNNY   86  36  16 W6G18     29.63F
COOK           MOSUNNY   86  45  23 W12G17    29.66F
WALKER         FAIR      86  47  26 SW13G22   29.70F
$$
MNZ012-019>021-037-061900-
   Northeast Minnesota

CITY           SKY/WX    TMP DP  RH WIND       PRES   REMARKS
DULUTH         SUNNY     89  43  20 W20G30    29.70F
6HR MIN TEMP:  67; 6HR MAX TEMP:  90;

ELY            CLOUDY    86  37  17 SW21G29   29.65F
HIBBING        SUNNY     87  44  22 W8G24     29.68F
EVELETH        SUNNY     82  37  20 W20G25    29.70F
DULUTH HARBOR  SUNNY     88  45  22 SW17      29.66F
TWO HARBORS    SUNNY     91  55  29 SW20G25   29.65F
SILVER BAY     MOSUNNY   90  39  17 SW15G24   29.64F
GRAND MARAIS     N/A     45  36  70 NE6       29.67F
G MARAIS ARPRT CLOUDY    82  43  24 S8        29.68F
$$
MNZ029>031-032-039>041-046>048-054>057-064-061900-
   West Central Minnesota

CITY           SKY/WX    TMP DP  RH WIND       PRES   REMARKS
FERGUS FALLS   MOSUNNY   84  52  32 N6        29.71F
WHEATON        MOSUNNY   86  55  35 W7        29.76F
MORRIS         SUNNY     82  52  34 NW7       29.74F
ALEXANDRIA     SUNNY     80  51  36 W8        29.78F
ELBOW LAKE     FAIR      82  52  35 NW7       29.76F
WADENA         CLOUDY    82  52  34 W9        29.75F
GLENWOOD       SUNNY     81  52  36 W14       29.77F
APPLETON       MOSUNNY   82  50  32 NW14      29.75F
BENSON         SUNNY     81  48  32 NW8       29.76F
ORTONVILLE     SUNNY     82  52  34 NW9       29.76F
MADISON        SUNNY     82  48  30 NW17G23   29.76F
WILLMAR        FAIR      88  52  29 SW18G25   29.76F
$$
MNZ033>034-036-042>043-049>051-058-059-061900-
   Central Minnesota

CITY           SKY/WX    TMP DP  RH WIND       PRES   REMARKS
ST CLOUD       SUNNY     86  49  27 SW20G25   29.74F
6HR MIN TEMP:  59; 6HR MAX TEMP:  86;

SAUK CENTRE      N/A     82  54  38 W9        29.76F
PAYNESVILLE    SUNNY     84  47  27 SW14      29.77F
AITKIN         MOSUNNY   88  41  19 SW5       29.71F
PINE RIVER     SUNNY     88  55  33 SW10      29.75F
BRAINERD       MOSUNNY   86  49  27 SW12      29.72F
STAPLES        PTSUNNY   82  48  30 SW9       29.74S
LONG PRAIRIE   FAIR      81  52  36 SW9       29.77F
LITTLE FALLS   SUNNY     82  46  28 SW13      29.76S
LITCHFIELD     SUNNY     86  48  26 W14G24    29.76F
BUFFALO        SUNNY     85  48  27 S15       29.77F
MAPLE LAKE     SUNNY     87  52  30 S14G23    29.77F
HUTCHINSON     CLOUDY    89  51  27 SW18G28   29.78F
$$
MNZ037-044-045-052-053-061900-
   East Central Minnesota

CITY           SKY/WX    TMP DP  RH WIND       PRES   REMARKS
PRINCETON      SUNNY     88  52  29 S14G22    29.75F
MORA           SUNNY     82  50  32 SW15G22   29.76F
CAMBRIDGE        N/A     88  61  40 S13G20    29.74F
RUSH CITY      SUNNY     85  51  30 S13       29.76F
MOOSE LAKE     SUNNY     90  50  25 SW14G22   29.70F
HINCKLEY       FAIR      86  55  35 SW16      29.75F
CLOQUET        SUNNY     90  36  14 SW12G22   29.71F
MCGREGOR       SUNNY     84  50  30 SW13G18   29.73F
$$
MNZ071>073-080-081-089-090-097-098-061900-
   Southwest Minnesota

CITY           SKY/WX    TMP DP  RH WIND       PRES   REMARKS
MONTEVIDEO     SUNNY     86  52  30 NW14      29.77F
GRANITE FALLS  SUNNY     90  51  26 W20G30    29.77F
CANBY          MOSUNNY   85  55  36 SW20      29.78F
MARSHALL       SUNNY     86  52  30 W32G39    29.75F
REDWOOD FALLS  SUNNY     88  48  25 SW23G37   29.76F
OLIVIA         SUNNY     82  46  28 SW20G28   29.75F
WINDOM         SUNNY     84  46  26 SW22G31   29.84F
WORTHINGTON    SUNNY     83  51  33 SW29G35   29.86F
JACKSON        SUNNY     82  39  21 SW24      29.87F
TRACY          SUNNY     86  51  29 SW32G43   29.80F
SLAYTON        SUNNY     81  49  32 SW25G31   29.86S
$$
MNZ065>067-074>077-082>085-091>093-061900-
   South Central Minnesota

CITY           SKY/WX    TMP DP  RH WIND       PRES   REMARKS
MANKATO        SUNNY     86  45  23 SW24      29.82F
ST JAMES       SUNNY     81  45  28 SW22G35   29.83F
FAIRMONT       SUNNY     84  43  23 SW23G32   29.86F
GLENCOE        SUNNY     87  51  28 SW14G28   29.78F
FARIBAULT      SUNNY     84  48  28 SW14G24   29.84F
OWATONNA       SUNNY     88  41  19 W28       29.84F
WASECA         SUNNY     82  45  26 SW23G30   29.86F
ALBERT LEA     SUNNY     84  39  20 W13G22    29.87F
$$
MNZ078>079-086>088-094>096-061900-
   Southeast Minnesota

CITY           SKY/WX    TMP DP  RH WIND       PRES   REMARKS
ROCHESTER      SUNNY     86  43  22 SW16G26   29.86F
6HR MIN TEMP:  60; 6HR MAX TEMP:  87;

RED WING       SUNNY     90  45  20 W13G20    29.79F
STANTON        SUNNY     86  46  24 W18G28    29.81F
DODGE CENTER   SUNNY     84  43  23 SW24G30   29.86F
WINONA         SUNNY     90  43  19 W7        29.83F
AUSTIN         SUNNY     84  41  21 SW18G25   29.87F
PRESTON        SUNNY     84  38  19 W17G29    29.88F
$$
ABBREVIATIONS USED IN REMARKS
   TC - TEMPERATURES IN CELSIUS
  WCI - WIND CHILL INDEX
   HX - HEAT INDEX
  VSB - VISIBILITY
$$




USA.gov is the U.S. government's official web portal to all federal, state and local government web resources and services.